This is the latest recevied weather packets stored in our database for station/object K3HW. If no packets are shown the sender has not sent any weather packets the latest 10 day(s).
| Time | Temp. | Humidity | Pressure | Rain* | Wind** | Luminosity | Snow |
|---|---|---|---|---|---|---|---|
| 1778025109 | 25° C | 41% | 1012.5 hPa | 0 mm | - | 2 W/m² | - |
| 1778024805 | 25° C | 41% | 1012.3 hPa | 0 mm | - | 3 W/m² | - |
| 1778024502 | 25° C | 40% | 1012.2 hPa | 0 mm | - | 4 W/m² | - |
| 1778024199 | 25.56° C | 41% | 1012.4 hPa | 0 mm | - | 6 W/m² | - |
| 1778023897 | 25.56° C | 41% | 1012.4 hPa | 0 mm | - | 8 W/m² | - |
| 1778023594 | 25° C | 40% | 1012.2 hPa | 0 mm | - | 11 W/m² | - |
| 1778023292 | 25.56° C | 40% | 1012.3 hPa | 0 mm | - | 12 W/m² | - |
| 1778022988 | 25.56° C | 40% | 1012.4 hPa | 0 mm | - | 13 W/m² | - |
| 1778022687 | 25.56° C | 39% | 1012.3 hPa | 0 mm | - | 18 W/m² | - |
| 1778022385 | 25.56° C | 39% | 1012.3 hPa | 0 mm | - | 22 W/m² | - |
| 1778022081 | 25.56° C | 39% | 1012.2 hPa | 0 mm | - | 23 W/m² | - |
| 1778021778 | 25.56° C | 39% | 1012.3 hPa | 0 mm | - | 22 W/m² | - |
| 1778021474 | 26.11° C | 39% | 1012.3 hPa | 0 mm | - | 22 W/m² | - |
| 1778021170 | 26.11° C | 38% | 1012.2 hPa | 0 mm | - | 24 W/m² | - |
| 1778020868 | 26.11° C | 37% | 1012.4 hPa | 0 mm | - | 26 W/m² | - |
| 1778020565 | 26.67° C | 38% | 1012.4 hPa | 0 mm | - | 23 W/m² | - |
| 1778020261 | 26.67° C | 37% | 1012.1 hPa | 0 mm | - | 26 W/m² | - |
| 1778019958 | 26.67° C | 37% | 1012.2 hPa | 0 mm | - | 33 W/m² | - |
| 1778019654 | 26.67° C | 36% | 1012 hPa | 0 mm | - | 29 W/m² | - |
| 1778019351 | 27.22° C | 36% | 1012.2 hPa | 0 mm | - | 98 W/m² | - |
| 1778019047 | 27.22° C | 36% | 1012.2 hPa | 0 mm | - | 64 W/m² | - |
| 1778018745 | 27.22° C | 36% | 1012.2 hPa | 0 mm | - | 85 W/m² | - |
| 1778018442 | 27.22° C | 37% | 1012 hPa | 0 mm | - | 147 W/m² | - |
| 1778018141 | 27.22° C | 35% | 1012.1 hPa | 0 mm | - | 156 W/m² | - |
| 1778017838 | 27.78° C | 35% | 1011.9 hPa | 0 mm | - | 84 W/m² | - |
* Rain latest hour (hover to see other rain measurements)
** Current wind speed in m/s (hover to see current wind gust speed)